Location: Unspecified
(52.4292°N, 19.3359°E)
Time: 22:24:27
(UTC+02:00)

A-11 Canister half - Pass Details

Date: 24 May 2024
Orbit: 1524 x 1683 km, 47.3° (Epoch: 19 June)

Event Time Altitude Azimuth Distance (km) Brightness Sun altitude
Rises 00:28:11 0° 263° (W) 4,717 11.5 -16.7°
Reaches altitude 10° 00:31:14 10° 261° (W) 3,751 11.0 -16.7°
Maximum altitude 00:40:36 66° 182° (S) 1,721 9.0 -16.8°
Drops below altitude 10° 00:50:20 10° 103° (ESE) 3,875 11.0 -16.7°
Sets 00:53:31 0° 101° (E) 4,880 11.6 -16.7°
